User: anonymous   Login
Location: NJAA Observatory
(40.6819°N, 74.8979°W)
Time: 17:06:24
(UTC-05:00)
Language:

Meteor 1-28 Rocket - Orbit

View from above orbital plane
View from above orbital plane
View from above satellite
View from above satellite

Ground track
Ground track

The orbit data is extracted from the following two-line orbital elements,

1 10114U 77057B   16041.16128014  .00001692  00000-0  91232-4 0  9997
2 10114  97.2093 242.3672 0012824 238.9118 121.0858 15.16002419108838
Epoch (UTC): 10 February 2016 03:52:14
Eccentricity: 0.0012824
inclination: 97.2093°
perigee height: 509 km
apogee height: 527 km
right ascension of ascending node: 242.3672°
argument of perigee: 238.9118°
revolutions per day: 15.16002419
mean anomaly at epoch: 121.0858°
orbit number at epoch: 10883

The dashed part of the orbit path shows where the satellite is in the earth's shadow,  

DLR